EHI
22 25 27 26 23 19 16 13 12 12 10 6 2 0 0 1 1 0 2 5 7 8 6 2 0 0 0 0 0 0 0 0 0 0 0 0 0 0 0 0 0 0 0
23 26 28 28 25 20 15 13 12 11 9 6 3 1 0 1 2 1 2 5 8 8 6 2 0 0 0 0 0 0 0 0 0 0 0 0 0 0 0 0 0 0 0
22 23 26 28 26 21 16 13 11 10 8 6 3 1 0 1 2 1 2 5 7 8 5 1 0 0 0 0 0 0 0 0 0 0 0 0 0 0 0 0 0 0 0
17 18 20 25 26 21 17 14 10 8 7 5 4 2 1 1 1 1 2 4 6 6 4 1 0 0 0 0 0 0 0 0 0 0 0 0 0 0 0 0 0 0 0
15 16 19 23 24 21 18 15 11 7 5 4 4 3 1 0 1 2 3 4 4 5 3 2 1 0 0 0 0 0 0 0 0 0 0 0 0 0 0 0 0 0 0
17 18 20 23 23 21 19 15 10 6 4 3 4 3 1 1 2 3 4 4 4 4 3 2 2 1 0 0 0 0 0 0 0 0 0 0 0 0 0 0 0 0 0
17 18 20 23 23 22 20 15 10 6 4 3 3 3 2 2 3 3 4 5 4 3 3 3 2 1 0 0 0 0 0 0 0 0 0 0 0 0 0 0 0 0 0
15 16 19 21 20 20 18 15 11 7 4 3 3 3 3 3 3 3 4 4 3 3 4 3 1 0 0 0 0 0 0 0 0 0 0 0 0 0 0 0 0 0 0
13 14 15 15 15 15 15 13 10 7 4 3 3 3 3 3 3 3 3 4 4 4 4 3 1 0 0 1 1 1 0 0 0 0 0 0 0 0 0 0 0 0 0
12 12 12 12 11 11 11 10 8 5 3 3 3 3 3 3 3 3 3 3 5 4 4 3 2 1 0 1 2 1 0 0 0 0 0 0 1 1 0 0 0 0 0
10 11 11 11 11 11 9 8 6 4 3 3 3 3 3 3 3 3 1 2 5 4 3 3 2 1 0 1 1 0 0 0 0 0 0 1 2 1 0 0 0 0 0
10 10 10 11 11 10 8 7 6 4 3 3 3 3 3 3 3 2 1 1 3 3 2 2 1 0 0 0 0 0 0 0 0 0 0 1 1 1 0 0 0 0 0
8 9 9 9 9 8 7 7 6 4 3 3 3 3 3 3 3 3 1 1 1 1 1 1 0 0 0 0 0 0 0 0 0 0 0 0 0 0 0 0 0 0 0
4 6 8 7 7 6 5 4 4 4 4 4 4 4 3 3 3 3 3 2 1 0 0 0 0 0 0 0 0 0 0 0 0 0 0 0 0 0 0 0 0 0 0
1 4 6 6 5 5 3 2 2 3 4 5 6 5 4 3 3 3 3 3 2 1 0 0 0 0 0 0 0 0 0 0 0 0 0 0 0 0 0 0 0 0 0
1 2 4 5 5 4 2 1 1 1 3 6 6 6 4 3 3 3 3 3 2 1 0 0 0 0 0 0 0 0 0 0 0 0 0 0 0 0 0 0 0 0 0
0 1 3 5 4 2 1 0 0 1 3 5 6 6 5 4 3 3 3 3 2 1 0 0 0 0 0 0 0 0 0 0 0 0 0 0 0 0 0 0 0 0 0
0 0 2 3 3 2 1 1 1 2 3 5 6 6 6 4 3 3 3 3 2 1 0 0 0 0 0 0 0 0 0 0 0 0 0 0 0 0 0 0 0 0 0
0 0 0 1 2 2 2 2 2 3 3 4 6 6 6 4 3 3 3 3 3 1 0 0 0 0 0 0 0 0 0 0 0 0 0 0 0 0 0 0 0 0 0
1 1 0 0 1 1 1 2 2 2 2 3 5 6 6 5 4 3 3 3 3 2 0 0 0 0 0 0 0 0 0 0 0 0 0 0 0 0 0 0 0 0 0
2 2 1 0 0 0 0 1 1 1 1 2 5 6 6 6 4 3 3 3 2 1 0 0 0 0 0 0 0 0 0 0 0 0 0 0 0 0 0 0 0 0 0
2 2 1 0 0 0 0 0 0 0 0 1 3 4 5 5 3 3 2 1 1 0 0 0 0 0 0 0 0 0 0 0 0 0 0 0 0 0 0 0 0 0 0
1 1 0 0 0 0 0 0 0 0 0 0 1 2 2 2 2 1 1 0 0 0 0 0 0 0 0 0 0 0 0 0 0 0 0 0 0 0 0 0 0 0 0
0 0 0 0 0 0 0 0 0 0 0 0 0 0 0 0 0 0 0 0 0 0 0 0 0 0 0 0 0 0 0 0 0 0 0 0 0 0 0 0 0 0 0
0 0 0 0 0 0 0 0 0 0 0 0 0 0 0 0 0 0 0 0 0 0 0 0 0 0 0 0 0 0 0 0 0 0 0 0 0 0 0 0 0 0 0
0 0 0 0 0 0 0 0 0 0 0 0 0 0 0 0 0 0 0 0 0 0 0 0 0 0 0 0 0 0 0 0 0 0 0 0 0 0 0 0 0 0 0
Wind_Speed
4 7 7 6 6 6 7 6 6 6 6 6 6 6 6 6 7 8 8 8 8 8 8 8 8 8 8 8 9 9 9 9 9 10 10 9 9 9 9 8 9 6 10
5 8 8 6 6 6 6 6 6 5 6 6 5 5 6 6 6 7 7 8 8 8 7 8 8 8 8 8 7 7 7 7 7 7 8 7 8 8 8 8 8 6 9
6 7 7 6 6 6 6 6 6 5 5 5 5 4 5 5 6 6 6 7 7 7 7 7 7 8 8 7 7 6 6 5 4 4 4 3 4 7 8 8 8 8 8
6 6 6 6 6 5 5 5 5 6 5 5 5 4 4 4 5 5 6 6 6 6 6 7 7 7 7 6 6 5 4 3 3 2 2 3 3 7 7 7 7 7 7
5 6 7 6 5 5 4 4 4 5 5 4 4 4 4 4 4 5 5 5 5 5 6 6 6 6 6 5 5 4 3 1 2 2 2 4 4 6 6 6 6 6 6
5 6 6 6 5 4 4 3 3 4 4 4 4 4 4 4 4 4 4 5 5 5 5 5 6 5 5 5 4 3 1 2 2 1 3 4 3 5 6 5 5 5 5
4 5 6 5 5 4 3 3 3 2 3 3 3 4 3 3 4 4 4 4 5 5 5 5 5 5 5 4 3 1 1 2 1 2 3 3 3 5 5 4 4 4 4
4 5 5 4 4 3 2 2 3 2 2 2 2 3 3 3 4 4 4 4 4 4 4 4 5 5 4 3 2 0 2 4 1 2 3 3 4 4 3 3 3 3 3
4 4 3 3 3 3 2 2 2 2 1 2 2 3 2 3 3 4 3 3 4 3 4 4 4 5 4 3 2 1 3 5 3 1 3 2 3 2 2 2 2 2 2
4 4 3 2 2 2 2 2 2 2 1 1 1 2 2 2 2 3 3 3 3 3 3 3 3 4 4 3 2 2 4 4 1 1 2 2 2 1 1 1 1 1 1
4 4 3 2 2 1 1 1 2 2 1 2 2 2 2 2 2 3 3 3 3 3 3 3 3 4 4 3 2 3 3 1 0 1 2 3 2 2 1 0 1 1 1
3 3 3 3 2 1 0 1 1 2 2 2 2 2 1 1 1 2 3 3 3 3 3 3 3 4 3 2 2 3 2 2 1 1 2 3 2 2 1 1 2 2 2
2 3 3 2 1 1 0 1 0 1 1 1 1 1 1 1 1 1 2 2 3 3 2 3 3 2 3 2 3 3 3 1 1 1 2 3 3 3 2 2 3 3 3
3 3 3 3 2 1 0 1 1 1 1 1 1 1 1 1 1 1 1 2 2 2 2 2 2 3 3 3 3 3 2 1 1 1 3 4 4 4 3 3 4 4 4
3 3 2 2 3 2 1 1 0 1 1 1 2 2 1 1 1 1 1 2 2 2 2 3 3 3 3 3 3 3 2 2 1 1 2 4 5 5 4 4 5 5 5
3 3 2 2 2 2 1 1 1 1 1 1 1 2 2 2 2 2 1 2 2 2 2 2 3 3 2 2 3 3 3 2 2 2 2 3 4 5 6 6 5 5 5
3 3 2 1 2 2 1 2 1 1 1 1 1 2 2 2 2 2 1 1 2 2 2 1 2 1 1 2 2 3 2 2 2 2 3 2 3 4 5 6 5 5 6
2 2 2 2 2 2 1 1 1 1 1 1 1 1 2 2 2 2 2 1 2 2 1 1 1 1 1 1 1 2 2 1 2 2 2 3 2 2 3 6 6 6 6
2 2 2 1 1 2 1 1 1 1 1 1 1 1 2 2 2 2 2 1 1 1 1 2 1 1 1 1 1 1 1 1 2 3 3 3 3 3 2 3 5 6 6
1 1 1 2 1 1 1 1 1 1 1 1 1 1 2 1 1 1 1 2 1 1 1 2 2 2 2 2 1 1 2 2 2 2 3 2 2 3 3 3 2 3 5
2 1 1 2 2 1 1 1 1 1 1 1 1 2 2 1 1 1 1 1 1 1 2 3 2 2 2 1 0 1 2 3 3 2 2 2 2 3 3 3 2 2 2
2 1 1 2 2 2 1 1 1 1 2 1 1 1 2 1 1 1 2 2 1 1 2 2 2 2 2 2 2 1 1 2 2 2 2 2 2 2 3 3 3 2 2
2 2 2 2 3 2 2 1 1 1 1 1 1 1 2 2 1 1 1 1 1 1 2 2 2 3 3 3 2 3 2 3 1 2 2 2 2 2 2 2 3 3 3
2 1 2 3 3 3 2 1 2 1 2 2 1 1 1 1 1 0 1 0 1 1 1 2 2 2 3 3 3 3 3 2 2 1 2 2 2 3 3 2 2 3 3
1 1 2 3 3 3 2 2 2 2 2 1 1 1 1 1 1 1 0 0 1 1 1 2 2 3 2 3 3 2 2 2 2 2 2 2 2 2 2 3 2 3 3
1 1 2 2 3 2 2 2 2 3 2 2 2 1 1 1 1 1 1 1 1 1 1 2 2 3 3 3 3 2 2 2 3 2 3 3 3 2 3 2 2 2 2
Wind_Direction
107 115 105 91 88 92 92 93 96 98 96 98 103 108 107 107 108 107 105 103 100 99 99 97 94 90 85 81 79 77 75 76 78 77 73 74 77 78 72 69 78 73 78
114 121 110 96 90 90 95 92 91 95 97 98 105 115 118 115 114 115 115 111 108 106 103 99 96 94 90 86 84 82 80 81 84 85 81 72 77 81 77 70 75 80 78
101 115 116 97 93 90 94 92 89 90 95 98 99 116 124 125 122 120 119 117 113 109 107 103 99 94 89 87 87 86 87 89 83 77 83 82 84 88 86 83 81 80 79
106 116 116 100 98 94 95 100 96 90 93 98 101 110 127 130 127 127 122 118 117 112 108 107 103 98 94 91 89 89 90 89 66 52 63 87 85 92 90 87 85 82 79
102 111 116 103 98 96 97 100 105 101 97 103 106 109 122 132 133 131 130 122 116 113 110 109 107 103 101 99 97 96 96 63 34 28 61 75 72 91 90 85 82 81 77
97 103 117 108 101 91 92 100 107 112 104 103 113 109 120 124 127 133 132 127 118 116 117 118 115 110 107 106 104 102 77 3 2 28 71 80 77 86 92 93 86 85 82
87 101 116 116 114 104 89 101 108 112 114 108 123 119 118 125 121 121 124 125 126 123 126 128 124 118 117 113 115 112 350 332 343 67 70 77 84 84 88 89 89 86 88
74 94 114 118 121 115 102 105 111 111 127 121 130 129 123 125 127 129 130 125 125 133 136 138 134 129 126 119 115 52 330 321 12 87 86 84 94 91 90 97 91 84 79
67 83 98 122 132 122 116 117 107 103 114 143 162 141 127 120 130 138 137 136 135 136 137 139 143 140 135 132 132 304 312 314 326 74 100 98 104 104 96 102 108 103 81
58 68 81 82 90 113 155 142 114 107 102 118 170 130 113 118 135 146 144 144 138 137 130 128 148 151 146 146 168 268 291 303 306 53 93 113 127 149 123 129 128 136 130
43 43 53 66 69 90 156 135 137 157 160 128 131 114 119 154 152 152 150 138 140 142 147 151 154 162 156 160 200 259 280 267 144 94 95 126 153 177 166 170 189 179 207
30 24 38 43 40 46 147 113 177 180 172 160 156 164 171 156 150 151 153 155 160 163 166 173 171 163 170 178 206 244 260 244 201 125 131 150 181 201 204 249 217 213 237
13 27 27 26 23 24 67 155 162 186 180 173 165 165 170 145 137 137 147 159 165 172 168 171 173 200 199 186 192 216 238 238 188 135 151 165 196 212 220 248 230 224 239
3 24 25 17 12 10 10 210 184 188 179 175 167 178 190 160 163 160 164 180 178 184 180 182 205 218 216 194 207 221 222 226 182 139 163 179 198 217 230 245 240 230 237
357 5 21 16 9 2 2 273 230 202 200 192 177 193 191 187 187 182 183 186 197 192 186 201 215 214 223 213 218 220 224 230 195 160 165 188 202 220 233 243 250 240 245
352 355 5 9 356 1 359 326 260 226 199 211 195 196 199 200 195 184 196 190 205 193 197 208 218 216 227 213 222 221 222 236 208 177 171 189 204 221 233 240 250 247 252
340 346 345 345 352 349 338 318 312 267 212 216 220 205 201 203 199 187 195 198 205 199 207 214 228 217 226 224 221 230 222 221 216 198 187 185 192 214 230 237 252 253 256
330 332 328 342 346 326 324 314 313 293 273 248 248 237 213 206 203 188 188 208 210 196 198 205 208 214 223 230 231 243 242 232 230 217 204 194 185 190 216 230 247 257 253
302 300 312 314 323 315 313 313 327 302 279 287 268 251 245 221 205 194 194 210 203 198 202 214 212 195 207 235 235 243 248 244 238 230 213 201 188 182 189 212 235 253 252
285 292 307 303 315 312 303 307 340 329 306 307 297 270 253 230 214 199 202 207 199 197 212 205 214 215 204 208 243 271 272 255 241 230 218 205 192 191 192 199 213 246 254
284 285 307 301 307 327 323 309 294 289 287 289 279 294 275 238 221 208 221 206 197 210 221 214 209 210 215 188 172 292 288 260 241 234 210 193 202 204 198 198 201 204 238
270 293 307 297 289 287 279 282 264 264 262 254 269 280 287 278 246 237 209 210 209 223 237 231 211 213 226 200 178 197 261 277 265 243 211 209 210 203 210 212 204 197 210
266 274 281 274 274 273 271 279 296 303 289 296 289 286 291 287 269 264 244 216 208 206 231 236 227 222 215 230 205 185 192 215 272 255 230 216 205 208 218 217 206 198 210
262 269 275 271 272 262 245 229 230 245 256 273 271 277 293 284 285 322 281 252 242 225 242 249 252 248 218 225 238 237 226 187 175 239 264 240 228 223 219 219 212 205 206
255 275 285 285 275 263 243 224 226 240 256 271 263 268 292 302 287 274 285 227 241 250 249 257 262 249 231 229 232 230 248 249 195 188 237 249 263 248 228 216 209 205 203
244 249 262 273 273 266 244 223 218 227 238 243 263 273 288 303 302 296 292 247 240 243 248 255 256 256 249 244 243 222 214 211 214 200 219 231 243 255 245 223 210 194 187